Weather History for KEST - May, 2013

Change the Weather History Date:

Wednesday, May 15, 2013

  Actual Average Record
Temperature  
Mean Temperature 66 °F 58 °F  
Max Temperature 79 °F 70 °F 93 °F (2001)
Min Temperature 52 °F 46 °F 27 °F (1973)
Degree Days  
Heating Degree Days 0 8  
Month to date heating degree days 209 148  
Since 1 July heating degree days 7781 7609  
Cooling Degree Days 1 1  
Month to date cooling degree days 15 9  
Year to date cooling degree days 15 11  
Growing Degree Days 14 (Base 50)    
Moisture  
Dew Point 42 °F    
Average Humidity 45    
Maximum Humidity 63    
Minimum Humidity 27    
Precipitation  
Precipitation T in 0.13 in 2.22 in (1948)
Month to date precipitation 1.01 1.89  
Sea Level Pressure  
Sea Level Pressure 29.87 in    
Wind  
Wind Speed 9 mph (NNE)    
Max Wind Speed 22 mph    
Max Gust Speed 28 mph    
Visibility 10 miles    
Events      
T = Trace of Precipitation, MM = Missing Value Source: NWS Daily Summary

Daily Weather History Graph

Daily Weather History Graph

Search for Another Location

Airport or City:

Trip Planner

Search our weather history database for the weather conditions in past years. The results will help you decide how hot, cold, wet, or windy it might be!

Date:

Astronomy

May. 15, 2013 Rise Set
Actual Time 5:54 AM CDT 8:36 PM CDT
Civil Twilight 5:21 AM CDT 9:10 PM CDT
Nautical Twilight 4:39 AM CDT 9:51 PM CDT
Astronomical Twilight 3:52 AM CDT 10:39 PM CDT
Moon 10:32 AM CDT (5/15) 12:22 AM CDT (5/15)
Length of Visible Light 15h 48m
Length of Day
14h 42m
Waxing Crescent, 27% of the Moon is Illuminated
May 15
Waxing Crescent
May 17
First Quarter
May 24
Full
May 31
Last Quarter
Jun 8
New

Hourly Weather History & Observations

Time (CDT) Temp. Dew Point Humidity Pressure Visibility Wind Dir Wind Speed Gust Speed Precip Events Conditions
12:52 AM 64.9 °F 42.1 °F 43% 29.78 in 10.0 mi NNW 16.1 mph - N/A   Clear
1:52 AM 62.1 °F 42.1 °F 48% 29.78 in 10.0 mi North 13.8 mph - N/A   Clear
2:52 AM 60.1 °F 42.1 °F 51% 29.79 in 10.0 mi North 12.7 mph - N/A   Clear
3:52 AM 59.0 °F 42.1 °F 53% 29.80 in 10.0 mi North 18.4 mph - N/A   Clear
4:52 AM 55.9 °F 41.0 °F 57% 29.82 in 10.0 mi North 15.0 mph - N/A   Clear
5:52 AM 52.0 °F 39.9 °F 63% 29.86 in 10.0 mi North 10.4 mph - N/A   Clear
6:52 AM 55.9 °F 42.1 °F 60% 29.90 in 10.0 mi North 9.2 mph - N/A   Clear
7:52 AM 61.0 °F 43.0 °F 52% 29.91 in 10.0 mi North 12.7 mph - N/A   Clear
8:52 AM 66.0 °F 43.0 °F 43% 29.94 in 10.0 mi NNE 8.1 mph - N/A   Clear
9:52 AM 69.1 °F 39.0 °F 33% 29.94 in 10.0 mi NNE 6.9 mph - N/A   Mostly Cloudy
10:52 AM 73.0 °F 37.0 °F 27% 29.93 in 10.0 mi East 6.9 mph - N/A   Partly Cloudy
11:52 AM 73.9 °F 37.9 °F 27% 29.94 in 10.0 mi ENE 8.1 mph - N/A   Clear
12:52 PM 73.9 °F 39.9 °F 29% 29.91 in 10.0 mi South 4.6 mph - N/A   Clear
1:52 PM 77.0 °F 43.0 °F 30% 29.87 in 10.0 mi NE 10.4 mph - N/A   Clear
2:52 PM 73.0 °F 46.9 °F 39% 29.88 in 10.0 mi North 9.2 mph - N/A   Overcast
3:52 PM 73.9 °F 44.1 °F 34% 29.88 in 10.0 mi NNE 9.2 mph - 0.00 in   Partly Cloudy
4:52 PM 75.0 °F 45.0 °F 34% 29.87 in 10.0 mi NNE 9.2 mph - N/A   Mostly Cloudy
5:52 PM 75.9 °F 45.0 °F 33% 29.87 in 10.0 mi North 10.4 mph - N/A   Partly Cloudy
6:52 PM 75.0 °F 42.1 °F 31% 29.86 in 10.0 mi NNW 8.1 mph - N/A   Mostly Cloudy
7:52 PM 72.0 °F 43.0 °F 35% 29.86 in 9.0 mi ENE 6.9 mph - N/A   Scattered Clouds
8:52 PM 69.1 °F 41.0 °F 36% 29.86 in 10.0 mi East 5.8 mph - N/A   Overcast
9:52 PM 66.0 °F 42.1 °F 42% 29.87 in 10.0 mi SSE 5.8 mph - N/A   Overcast
10:52 PM 61.0 °F 39.0 °F 44% 29.87 in 10.0 mi SSW 3.5 mph - N/A   Clear
11:52 PM 59.0 °F 41.0 °F 51% 29.88 in 10.0 mi SSW 4.6 mph - N/A   Clear